Tracking 35237 objects as of 6-Sep-2026
HD Live streaming from Space Station
objects crossing your sky now

SS-520-5 R/B


SS-520-5 R/B is no longer on orbit


NORAD ID: 43202
Int'l Code: 2018-016B
Launch date: February 3, 2018
Source: Japan (JPN)
Launch site: KAGOSHIMA SPACE CENTER UNIVERSITY OF TOKYO (KSCUT)
Decay date: 2018-06-22

Note: This is a ROCKET BODY
Your satellite tracking list
Your tracking list is empty




NASA's NSSDC Master Catalog

Two Line Element Set (TLE):
1 43202U 18016B   18173.32315573  .11444433 -40539-5  58886-3 0  9995
2 43202  30.8550 158.7749 0067844 281.4297  78.4669 16.31889012 20109
Source of the keplerian elements: AFSPC